TimePDT,TemperatureF,Dew PointF,Humidity,Sea Level PressureIn,VisibilityMPH,Wind Direction,Wind SpeedMPH,Gust SpeedMPH,PrecipitationIn,Events,Conditions,WindDirDegrees,DateUTC
12:46 AM,53.6,50.0,88,30.13,7.0,Calm,Calm,-,N/A,,Overcast,0,2012-03-30 07:46:00
1:46 AM,51.8,50.0,94,30.12,7.0,Calm,Calm,-,N/A,,Overcast,0,2012-03-30 08:46:00
2:46 AM,51.8,50.0,94,30.10,10.0,Calm,Calm,-,N/A,,Overcast,0,2012-03-30 09:46:00
3:46 AM,50.0,50.0,100,30.08,10.0,Calm,Calm,-,N/A,,Overcast,0,2012-03-30 10:46:00
4:46 AM,50.0,50.0,100,30.07,10.0,Calm,Calm,-,N/A,,Overcast,0,2012-03-30 11:46:00
5:46 AM,50.0,48.2,94,30.05,10.0,Calm,Calm,-,N/A,,Scattered Clouds,0,2012-03-30 12:46:00
6:46 AM,48.2,48.2,100,30.06,10.0,NE,5.8,-,N/A,,Mostly Cloudy,50,2012-03-30 13:46:00
7:45 AM,50.0,50.0,100,30.06,10.0,Calm,Calm,-,N/A,,Mostly Cloudy,0,2012-03-30 14:45:00
8:45 AM,55.4,50.0,82,30.06,10.0,Calm,Calm,-,N/A,,Mostly Cloudy,0,2012-03-30 15:45:00
9:48 AM,57.2,50.0,77,30.05,10.0,South,3.5,-,N/A,,Mostly Cloudy,180,2012-03-30 16:48:00
11:45 AM,62.6,51.8,68,30.03,10.0,South,5.8,-,N/A,,Scattered Clouds,190,2012-03-30 18:45:00
12:49 PM,64.4,51.8,64,30.01,10.0,South,5.8,-,N/A,,Mostly Cloudy,170,2012-03-30 19:49:00
1:45 PM,64.4,50.0,59,29.99,10.0,SSW,8.1,-,N/A,,Mostly Cloudy,210,2012-03-30 20:45:00
3:45 PM,64.4,51.8,64,29.95,10.0,WSW,11.5,-,N/A,,Mostly Cloudy,240,2012-03-30 22:45:00
5:45 PM,62.6,51.8,68,29.95,10.0,SW,10.4,-,N/A,,Mostly Cloudy,220,2012-03-31 00:45:00
6:45 PM,62.6,51.8,68,29.95,10.0,SW,9.2,-,N/A,,Mostly Cloudy,220,2012-03-31 01:45:00
7:50 PM,59.0,51.8,77,29.94,10.0,South,5.8,-,N/A,,Mostly Cloudy,190,2012-03-31 02:50:00
8:55 PM,57.2,51.8,82,29.95,10.0,SSW,8.1,-,N/A,,Mostly Cloudy,210,2012-03-31 03:55:00
9:55 PM,55.4,50.0,82,29.95,10.0,SSW,3.5,-,N/A,,Overcast,210,2012-03-31 04:55:00
10:50 PM,55.4,50.0,82,29.93,10.0,Calm,Calm,-,N/A,,Overcast,0,2012-03-31 05:50:00